STARLINK-4553 (53577 NORAD) Tracking and Keplerian Element Data

This shows tracking and keplerian element data for the satellite.

Feedback or suggestion? Click here.




ElementValue
Catalog53577
NameSTARLINK-4553
Epoch Orbit1461
Epoch Day325.25001157
Epoch Year2022
RAAN60.8056
Inclination53.2175
Eccentricity0.0001856
Argument of Perigee57.6369
Mean Anonmoly143.6228
Mean Motion15.08820102
Decay Rate0.00034232
L11 53577U 22101BC 22325.25001157 .00034232 00000+0 21597-2 0 9997
L22 53577 53.2175 60.8056 0001856 57.6369 143.6228 15.08820102 14618



Live tracking and technical data element details for STARLINK-4553 (NORAD 53577). STARLINK-4553 can be tracked NOW for your location showing map with azimuth and elevation plus other details from your city location.







IsCatalogInMostPopularTable: catalog: 53577, numindb: 4
Update: records affected: 1



GetName: 53577 STARLINK-4553

Hit Count: updated at: Thu, 08 Dec 2022 09:20:37 GMT